Location: Waco, TX
(31.5480°N, 97.1670°W)
Time: 09:29:50
(UTC-05:00)

ISS - Pass Details

Date: 14 October 2019
Orbit: 411 x 421 km, 51.6° (Epoch: 18 October)

Event Time Altitude Azimuth Distance (km) Brightness Sun altitude
Rises 17:17:40 0° 330° (NNW) 2,344 0.1 19.7°
Reaches altitude 10° 17:20:16 10° 351° (N) 1,479 -1.1 19.2°
Maximum altitude 17:22:33 17° 35° (NE) 1,115 -2.0 18.7°
Drops below altitude 10° 17:24:51 10° 79° (E) 1,473 -1.5 18.3°
Sets 17:27:25 0° 100° (E) 2,331 -0.5 17.7°
